Time,TemperatureF,DewpointF,PressureIn,WindDirection,WindDirectionDegrees,WindSpeedMPH,WindSpeedGustMPH,Humidity,HourlyPrecipIn,Conditions,Clouds,dailyrainin,SoftwareType,DateUTC
2013-06-15 00:12:00,49.0,-99.9,-100.00,North,-999,-999.0,-999.0,-999,0.00,,,0.11,,2013-06-15 06:12:00,
2013-06-15 00:24:00,49.0,-99.9,-100.00,North,-999,-999.0,-999.0,-999,0.00,,,0.11,,2013-06-15 06:24:00,
2013-06-15 00:33:00,49.0,-99.9,-100.00,North,-999,-999.0,-999.0,-999,0.00,,,0.11,,2013-06-15 06:33:00,
2013-06-15 00:43:00,49.0,-99.9,-100.00,North,-999,-999.0,-999.0,-999,0.00,,,0.11,,2013-06-15 06:43:00,
2013-06-15 01:12:00,48.0,-99.9,-100.00,North,-999,-999.0,-999.0,-999,0.01,,,0.12,,2013-06-15 07:12:00,
2013-06-15 01:23:00,48.0,-99.9,-100.00,North,-999,-999.0,-999.0,-999,0.01,,,0.12,,2013-06-15 07:23:00,
2013-06-15 01:33:00,48.0,-99.9,-100.00,North,-999,-999.0,-999.0,-999,0.01,,,0.12,,2013-06-15 07:33:00,
2013-06-15 01:43:00,48.0,-99.9,-100.00,North,-999,-999.0,-999.0,-999,0.01,,,0.12,,2013-06-15 07:43:00,
2013-06-15 02:12:00,48.0,-99.9,-100.00,North,-999,-999.0,-999.0,-999,-99.99,,,0.11,,2013-06-15 08:12:00,
2013-06-15 02:22:00,48.0,-99.9,-100.00,North,-999,-999.0,-999.0,-999,-99.99,,,0.11,,2013-06-15 08:22:00,
2013-06-15 02:34:00,48.0,-99.9,-100.00,North,-999,-999.0,-999.0,-999,-99.99,,,0.11,,2013-06-15 08:34:00,
2013-06-15 02:43:00,48.0,-99.9,-100.00,North,-999,-999.0,-999.0,-999,-99.99,,,0.11,,2013-06-15 08:43:00,
2013-06-15 03:12:00,48.0,-99.9,-100.00,North,-999,-999.0,-999.0,-999,0.00,,,0.11,,2013-06-15 09:12:00,
2013-06-15 03:22:00,48.0,-99.9,-100.00,North,-999,-999.0,-999.0,-999,0.00,,,0.11,,2013-06-15 09:22:00,
2013-06-15 03:33:00,48.0,-99.9,-100.00,North,-999,-999.0,-999.0,-999,0.00,,,0.11,,2013-06-15 09:33:00,
2013-06-15 03:43:00,48.0,-99.9,-100.00,North,-999,-999.0,-999.0,-999,0.00,,,0.11,,2013-06-15 09:43:00,
2013-06-15 04:12:00,47.0,-99.9,-100.00,North,-999,-999.0,-999.0,-999,0.01,,,0.12,,2013-06-15 10:12:00,
2013-06-15 04:23:00,47.0,-99.9,-100.00,North,-999,-999.0,-999.0,-999,0.01,,,0.12,,2013-06-15 10:23:00,
2013-06-15 04:34:00,47.0,-99.9,-100.00,North,-999,-999.0,-999.0,-999,0.01,,,0.12,,2013-06-15 10:34:00,
2013-06-15 04:44:00,47.0,-99.9,-100.00,North,-999,-999.0,-999.0,-999,0.01,,,0.12,,2013-06-15 10:44:00,
2013-06-15 05:12:00,46.0,-99.9,-100.00,North,-999,-999.0,-999.0,-999,-99.99,,,0.11,,2013-06-15 11:12:00,
2013-06-15 05:22:00,46.0,-99.9,-100.00,North,-999,-999.0,-999.0,-999,-99.99,,,0.11,,2013-06-15 11:22:00,
2013-06-15 05:33:00,46.0,-99.9,-100.00,North,-999,-999.0,-999.0,-999,-99.99,,,0.11,,2013-06-15 11:33:00,
2013-06-15 05:43:00,46.0,-99.9,-100.00,North,-999,-999.0,-999.0,-999,-99.99,,,0.11,,2013-06-15 11:43:00,
2013-06-15 06:12:00,46.0,-99.9,-100.00,North,-999,-999.0,-999.0,-999,0.00,,,0.11,,2013-06-15 12:12:00,
2013-06-15 06:23:00,46.0,-99.9,-100.00,North,-999,-999.0,-999.0,-999,0.00,,,0.11,,2013-06-15 12:23:00,
2013-06-15 06:33:00,46.0,-99.9,-100.00,North,-999,-999.0,-999.0,-999,0.00,,,0.11,,2013-06-15 12:33:00,
2013-06-15 06:44:00,46.0,-99.9,-100.00,North,-999,-999.0,-999.0,-999,0.00,,,0.11,,2013-06-15 12:44:00,
2013-06-15 07:12:00,45.0,-99.9,-100.00,North,-999,-999.0,-999.0,-999,0.00,,,-99.99,,2013-06-15 13:12:00,
2013-06-15 07:22:00,45.0,-99.9,-100.00,North,-999,-999.0,-999.0,-999,0.00,,,-99.99,,2013-06-15 13:22:00,
2013-06-15 07:33:00,45.0,-99.9,-100.00,North,-999,-999.0,-999.0,-999,0.00,,,-99.99,,2013-06-15 13:33:00,
2013-06-15 07:44:00,45.0,-99.9,-100.00,North,-999,-999.0,-999.0,-999,0.00,,,-99.99,,2013-06-15 13:44:00,
2013-06-15 08:12:00,47.0,-99.9,-100.00,North,-999,-999.0,-999.0,-999,0.00,,,0.11,,2013-06-15 14:12:00,
2013-06-15 08:23:00,47.0,-99.9,-100.00,North,-999,-999.0,-999.0,-999,0.00,,,0.11,,2013-06-15 14:23:00,
2013-06-15 08:34:00,47.0,-99.9,-100.00,North,-999,-999.0,-999.0,-999,0.00,,,0.11,,2013-06-15 14:34:00,
2013-06-15 08:43:00,47.0,-99.9,-100.00,North,-999,-999.0,-999.0,-999,0.00,,,0.11,,2013-06-15 14:43:00,
2013-06-15 10:12:00,57.0,-99.9,-100.00,North,-999,-999.0,-999.0,-999,-99.99,,,0.12,,2013-06-15 16:12:00,
2013-06-15 10:22:00,57.0,-99.9,-100.00,North,-999,-999.0,-999.0,-999,-99.99,,,0.12,,2013-06-15 16:22:00,
2013-06-15 10:33:00,57.0,-99.9,-100.00,North,-999,-999.0,-999.0,-999,-99.99,,,0.12,,2013-06-15 16:33:00,
2013-06-15 10:43:00,57.0,-99.9,-100.00,North,-999,-999.0,-999.0,-999,-99.99,,,0.12,,2013-06-15 16:43:00,
2013-06-15 11:12:00,61.0,-99.9,-100.00,North,-999,-999.0,-999.0,-999,0.00,,,-99.99,,2013-06-15 17:12:00,
2013-06-15 11:22:00,61.0,-99.9,-100.00,North,-999,-999.0,-999.0,-999,0.00,,,-99.99,,2013-06-15 17:22:00,
2013-06-15 11:32:00,61.0,-99.9,-100.00,North,-999,-999.0,-999.0,-999,0.00,,,-99.99,,2013-06-15 17:32:00,
2013-06-15 11:44:00,61.0,-99.9,-100.00,North,-999,-999.0,-999.0,-999,0.00,,,-99.99,,2013-06-15 17:44:00,
2013-06-15 12:12:00,64.0,-99.9,-100.00,North,-999,-999.0,-999.0,-999,0.00,,,0.11,,2013-06-15 18:12:00,
2013-06-15 12:22:00,64.0,-99.9,-100.00,North,-999,-999.0,-999.0,-999,0.00,,,0.11,,2013-06-15 18:22:00,
2013-06-15 12:33:00,64.0,-99.9,-100.00,North,-999,-999.0,-999.0,-999,0.00,,,0.11,,2013-06-15 18:33:00,
2013-06-15 12:43:00,64.0,-99.9,-100.00,North,-999,-999.0,-999.0,-999,0.00,,,0.11,,2013-06-15 18:43:00,
2013-06-15 13:12:00,67.0,-99.9,-100.00,North,-999,-999.0,-999.0,-999,0.00,,,0.09,,2013-06-15 19:12:00,
2013-06-15 13:22:00,67.0,-99.9,-100.00,North,-999,-999.0,-999.0,-999,0.00,,,0.09,,2013-06-15 19:22:00,
2013-06-15 13:33:00,67.0,-99.9,-100.00,North,-999,-999.0,-999.0,-999,0.00,,,0.09,,2013-06-15 19:33:00,
2013-06-15 13:44:00,67.0,-99.9,-100.00,North,-999,-999.0,-999.0,-999,0.00,,,0.09,,2013-06-15 19:44:00,
2013-06-15 14:12:00,69.0,-99.9,-100.00,North,-999,-999.0,-999.0,-999,0.00,,,0.07,,2013-06-15 20:12:00,
2013-06-15 14:22:00,69.0,-99.9,-100.00,North,-999,-999.0,-999.0,-999,0.00,,,0.07,,2013-06-15 20:22:00,
2013-06-15 14:34:00,69.0,-99.9,-100.00,North,-999,-999.0,-999.0,-999,0.00,,,0.07,,2013-06-15 20:34:00,
2013-06-15 14:43:00,69.0,-99.9,-100.00,North,-999,-999.0,-999.0,-999,0.00,,,0.07,,2013-06-15 20:43:00,
2013-06-15 15:12:00,71.0,-99.9,-100.00,North,-999,-999.0,-999.0,-999,0.00,,,-99.99,,2013-06-15 21:12:00,
2013-06-15 15:22:00,71.0,-99.9,-100.00,North,-999,-999.0,-999.0,-999,0.00,,,-99.99,,2013-06-15 21:22:00,
2013-06-15 15:34:00,71.0,-99.9,-100.00,North,-999,-999.0,-999.0,-999,0.00,,,-99.99,,2013-06-15 21:34:00,
2013-06-15 15:43:00,71.0,-99.9,-100.00,North,-999,-999.0,-999.0,-999,0.00,,,-99.99,,2013-06-15 21:43:00,
2013-06-15 16:02:00,71.0,-99.9,-100.00,North,-999,-999.0,-999.0,-999,0.00,,,0.04,,2013-06-15 22:02:00,
2013-06-15 16:11:00,71.0,-99.9,-100.00,North,-999,-999.0,-999.0,-999,0.00,,,0.04,,2013-06-15 22:11:00,
2013-06-15 16:22:00,71.0,-99.9,-100.00,North,-999,-999.0,-999.0,-999,0.00,,,0.04,,2013-06-15 22:22:00,
2013-06-15 16:33:00,71.0,-99.9,-100.00,North,-999,-999.0,-999.0,-999,0.00,,,0.04,,2013-06-15 22:33:00,
2013-06-15 16:43:00,71.0,-99.9,-100.00,North,-999,-999.0,-999.0,-999,0.00,,,0.04,,2013-06-15 22:43:00,
2013-06-15 17:12:00,71.0,-99.9,-100.00,North,-999,-999.0,-999.0,-999,0.00,,,0.03,,2013-06-15 23:12:00,
2013-06-15 17:22:00,71.0,-99.9,-100.00,North,-999,-999.0,-999.0,-999,0.00,,,0.03,,2013-06-15 23:22:00,
2013-06-15 17:33:00,71.0,-99.9,-100.00,North,-999,-999.0,-999.0,-999,0.00,,,0.03,,2013-06-15 23:33:00,
2013-06-15 17:43:00,71.0,-99.9,-100.00,North,-999,-999.0,-999.0,-999,0.00,,,0.03,,2013-06-15 23:43:00,
2013-06-15 18:12:00,72.0,-99.9,-100.00,North,-999,-999.0,-999.0,-999,0.00,,,0.03,,2013-06-16 00:12:00,
2013-06-15 18:22:00,72.0,-99.9,-100.00,North,-999,-999.0,-999.0,-999,0.00,,,0.03,,2013-06-16 00:22:00,
2013-06-15 18:34:00,72.0,-99.9,-100.00,North,-999,-999.0,-999.0,-999,0.00,,,0.03,,2013-06-16 00:34:00,
2013-06-15 18:43:00,72.0,-99.9,-100.00,North,-999,-999.0,-999.0,-999,0.00,,,0.03,,2013-06-16 00:43:00,
2013-06-15 20:12:00,67.0,-99.9,-100.00,North,-999,-999.0,-999.0,-999,-99.99,,,-99.99,,2013-06-16 02:12:00,
2013-06-15 20:22:00,67.0,-99.9,-100.00,North,-999,-999.0,-999.0,-999,-99.99,,,-99.99,,2013-06-16 02:22:00,
2013-06-15 20:34:00,67.0,-99.9,-100.00,North,-999,-999.0,-999.0,-999,-99.99,,,-99.99,,2013-06-16 02:34:00,
2013-06-15 20:43:00,67.0,-99.9,-100.00,North,-999,-999.0,-999.0,-999,-99.99,,,-99.99,,2013-06-16 02:43:00,
2013-06-15 21:12:00,62.0,-99.9,-100.00,North,-999,-999.0,-999.0,-999,0.00,,,0.00,,2013-06-16 03:12:00,
2013-06-15 21:22:00,62.0,-99.9,-100.00,North,-999,-999.0,-999.0,-999,0.00,,,0.00,,2013-06-16 03:22:00,
2013-06-15 21:34:00,62.0,-99.9,-100.00,North,-999,-999.0,-999.0,-999,0.00,,,0.00,,2013-06-16 03:34:00,
2013-06-15 21:44:00,62.0,-99.9,-100.00,North,-999,-999.0,-999.0,-999,0.00,,,0.00,,2013-06-16 03:44:00,
2013-06-15 22:12:00,57.0,-99.9,-100.00,North,-999,-999.0,-999.0,-999,0.00,,,0.01,,2013-06-16 04:12:00,
2013-06-15 22:23:00,57.0,-99.9,-100.00,North,-999,-999.0,-999.0,-999,0.00,,,0.01,,2013-06-16 04:23:00,
2013-06-15 22:34:00,57.0,-99.9,-100.00,North,-999,-999.0,-999.0,-999,0.00,,,0.01,,2013-06-16 04:34:00,
2013-06-15 22:43:00,57.0,-99.9,-100.00,North,-999,-999.0,-999.0,-999,0.00,,,0.01,,2013-06-16 04:43:00,
2013-06-15 23:12:00,55.0,-99.9,-100.00,North,-999,-999.0,-999.0,-999,0.00,,,0.01,,2013-06-16 05:12:00,
2013-06-15 23:22:00,55.0,-99.9,-100.00,North,-999,-999.0,-999.0,-999,0.00,,,0.01,,2013-06-16 05:22:00,
2013-06-15 23:34:00,55.0,-99.9,-100.00,North,-999,-999.0,-999.0,-999,0.00,,,0.01,,2013-06-16 05:34:00,
2013-06-15 23:43:00,55.0,-99.9,-100.00,North,-999,-999.0,-999.0,-999,0.00,,,0.01,,2013-06-16 05:43:00,